Hourly Data Report for October 30, 2016

All times are specified in Local Standard Time (LST). Add 1 hour to adjust for Daylight Saving Time where and when it is observed.

MONCTON INTL A
NEW BRUNSWICK

46°06'44.000" N
64°40'43.000" W
70.70 m
8103201
71705
YQM

Download Data

Hourly Data (October 2016)
Hourly Data Report for October 30, 2016
Temp Definition
°C
Dew Point Temp Definition
°C
Rel Hum Definition
%
Wind Dir Definition
10's deg

Wind Spd Definition
km/h
Visibility Definition
km
Stn Press Definition
kPa
Hmdx Definition


Wind Chill Definition


Weather Definition


TIME
00:00 Legend Double Dagger 7.1 6.8 98 24 16 12.9 99.67     Rain
01:00 Legend Double Dagger 6.9 6.5 97 25 15 16.1 99.63     Rain
02:00 Legend Double Dagger 6.6 6.3 98 23 12 19.3 99.56     Rain
03:00 Legend Double Dagger 6.5 6.2 98 23 10 19.3 99.48     LegendNANA
04:00 Legend Double Dagger 6.5 6.2 98 24 10 19.3 99.45     Drizzle
05:00 Legend Double Dagger 6.4 6.0 97 24 15 24.1 99.46     Cloudy
06:00 Legend Double Dagger 6.1 5.7 97 27 14 11.3 99.46     Drizzle
07:00 Legend Double Dagger 6.1 5.5 96 26 14 12.9 99.48     LegendNANA
08:00 Legend Double Dagger 6.1 5.4 95 28 11 24.1 99.53     Mainly Clear
09:00 Legend Double Dagger 6.7 5.0 89 27 15 24.1 99.54     LegendNANA
10:00 Legend Double Dagger 6.9 4.7 86 26 21 24.1 99.55     LegendNANA
11:00 Legend Double Dagger 7.2 5.4 88 27 18 24.1 99.57     Mostly Cloudy
12:00 Legend Double Dagger 7.2 5.7 90 28 18 24.1 99.57     LegendNANA
13:00 Legend Double Dagger 7.6 5.9 89 26 14 8.1 99.61     Fog
14:00 Legend Double Dagger 8.0 7.4 96 27 10 2.4 99.63     Rain Showers,Fog
15:00 Legend Double Dagger 8.8 7.7 93 35 25 8.1 99.68     Rain Showers,Fog
16:00 Legend Double Dagger 7.7 7.0 95 36 21 8.1 99.79     Fog
17:00 Legend Double Dagger 6.9 6.2 95 36 21 24.1 99.87     Mostly Cloudy
18:00 Legend Double Dagger 6.1 5.5 96 35 15 16.1 99.96     LegendNANA
19:00 Legend Double Dagger 6.1 5.7 97 35 13 19.3 100.02     Drizzle
20:00 Legend Double Dagger 5.2 4.8 97 34 10 24.1 100.05     Mostly Cloudy
21:00 Legend Double Dagger 5.8 5.4 97 31 7 24.1 100.11     LegendNANA
22:00 Legend Double Dagger 5.4 5.0 97 26 7 24.1 100.13     Drizzle
23:00 Legend Double Dagger 5.1 4.7 97 28 9 19.3 100.11     Cloudy

Notes on Data Quality.

Legend

  • E = Estimated
  • M = Missing
  • NA = Not Available
  • ‡ = Partner data that is not subject to review by the National Climate Archives
Date modified: